| time (UTC) | temp F | wind direction | speed MPH | gust MPH | rain 1hr in | rain 24hr in | rain mn in | humidity % | barometer mb |
| 20260503225017 | 40 | 135 | 1.0 | 6.0 | 0.00 | 0.00 | 0.00 | 76 | 1000.0 |
| 20260503224017 | 40 | 158 | 3.0 | 8.0 | 0.00 | 0.00 | 0.00 | 75 | 1000.2 |
| 20260503223017 | 40 | 225 | 2.0 | 9.0 | 0.00 | 0.00 | 0.00 | 75 | 1000.4 |
| 20260503222017 | 40 | 203 | 4.0 | 8.0 | 0.00 | 0.00 | 0.00 | 75 | 1000.5 |
| 20260503221017 | 40 | 135 | 3.0 | 7.0 | 0.00 | 0.00 | 0.00 | 76 | 1000.5 |
| 20260503220037 | 40 | 180 | 2.0 | 5.0 | 0.00 | 0.00 | 0.00 | 75 | 1000.6 |
| 20260503215015 | 40 | 225 | 3.0 | 7.0 | 0.00 | 0.00 | 0.00 | 76 | 1000.8 |
| 20260503214015 | 40 | 158 | 2.0 | 5.0 | 0.00 | 0.00 | 0.00 | 76 | 1000.9 |
| 20260503213017 | 40 | 158 | 2.0 | 7.0 | 0.00 | 0.00 | 0.00 | 75 | 1001.0 |
| 20260503212017 | 40 | 158 | 2.0 | 7.0 | 0.00 | 0.00 | 0.00 | 75 | 1001.1 |
| 20260503211017 | 40 | 225 | 3.0 | 7.0 | 0.00 | 0.00 | 0.00 | 74 | 1001.3 |
| 20260503210017 | 40 | 158 | 3.0 | 8.0 | 0.00 | 0.00 | 0.00 | 74 | 1001.5 |
| 20260503205017 | 41 | 135 | 5.0 | 11.0 | 0.00 | 0.00 | 0.00 | 74 | 1001.7 |
| 20260503204017 | 41 | 158 | 4.0 | 12.0 | 0.00 | 0.00 | 0.00 | 75 | 1001.9 |
| 20260503203017 | 41 | 135 | 5.0 | 17.0 | 0.00 | 0.00 | 0.00 | 74 | 1001.9 |
| 20260503202017 | 41 | 135 | 4.0 | 11.0 | 0.00 | 0.00 | 0.00 | 74 | 1002.1 |
| 20260503201038 | 41 | 158 | 4.0 | 11.0 | 0.00 | 0.00 | 0.00 | 74 | 1002.3 |
| 20260503200017 | 41 | 158 | 4.0 | 14.0 | 0.00 | 0.00 | 0.00 | 74 | 1002.3 |
| 20260503195017 | 41 | 158 | 3.0 | 11.0 | 0.00 | 0.00 | 0.00 | 74 | 1002.4 |
| 20260503194017 | 41 | 225 | 2.0 | 8.0 | 0.00 | 0.00 | 0.00 | 73 | 1002.5 |
| 20260503193017 | 41 | 135 | 3.0 | 11.0 | 0.00 | 0.00 | 0.00 | 72 | 1002.6 |
| 20260503192017 | 41 | 225 | 4.0 | 12.0 | 0.00 | 0.00 | 0.00 | 71 | 1002.6 |
| 20260503191017 | 41 | 135 | 5.0 | 11.0 | 0.00 | 0.00 | 0.00 | 71 | 1002.7 |
| 20260503190017 | 41 | 135 | 3.0 | 10.0 | 0.00 | 0.00 | 0.00 | 69 | 1002.8 |
| 20260503185017 | 41 | 158 | 2.0 | 7.0 | 0.00 | 0.00 | 0.00 | 68 | 1002.9 |
| 20260503184017 | 42 | 135 | 5.0 | 13.0 | 0.00 | 0.00 | 0.00 | 67 | 1002.9 |
| 20260503183017 | 42 | 158 | 3.0 | 11.0 | 0.00 | 0.00 | 0.00 | 68 | 1003.0 |
| 20260503182017 | 42 | 158 | 3.0 | 8.0 | 0.00 | 0.00 | 0.00 | 68 | 1003.1 |
| 20260503181017 | 42 | 180 | 3.0 | 7.0 | 0.00 | 0.00 | 0.00 | 69 | 1003.0 |
| 20260503180037 | 42 | 225 | 2.0 | 8.0 | 0.00 | 0.00 | 0.00 | 70 | 1003.0 |
| 20260503175017 | 42 | 135 | 2.0 | 7.0 | 0.00 | 0.00 | 0.00 | 70 | 1003.0 |
| 20260503174017 | 42 | 225 | 3.0 | 7.0 | 0.00 | 0.00 | 0.00 | 71 | 1003.2 |
| 20260503173017 | 41 | 135 | 3.0 | 8.0 | 0.00 | 0.00 | 0.00 | 71 | 1003.3 |
| 20260503172037 | 41 | 135 | 4.0 | 14.0 | 0.00 | 0.00 | 0.00 | 72 | 1003.4 |
| 20260503171017 | 41 | 135 | 3.0 | 8.0 | 0.00 | 0.00 | 0.00 | 72 | 1003.4 |
| 20260503131016 | 42 | 135 | 5.0 | 15.0 | 0.00 | 0.00 | 0.00 | 70 | 1006.5 |
| 20260503081016 | 41 | 135 | 4.0 | 8.0 | 0.00 | 0.00 | 0.00 | 78 | 1008.4 |
| 20260503072016 | 39 | 135 | 3.0 | 8.0 | 0.00 | 0.00 | 0.00 | 83 | 1008.4 |
| 20260503071016 | 39 | 135 | 3.0 | 7.0 | 0.00 | 0.00 | 0.00 | 84 | 1008.4 |
| 20260503055035 | 38 | 158 | 1.0 | 4.0 | 0.00 | 0.00 | 0.00 | 94 | 1008.4 |
| 20260503054015 | 36 | 135 | 2.0 | 3.0 | 0.00 | 0.00 | 0.00 | 94 | 1008.4 |
| 20260503053015 | 35 | 113 | 1.0 | 2.0 | 0.00 | 0.00 | 0.00 | 95 | 1008.3 |
| 20260503052015 | 35 | 0.0 | 1.0 | 0.00 | 0.00 | 0.00 | 95 | 1008.4 | |
| 20260503051015 | 34 | 135 | 1.0 | 3.0 | 0.00 | 0.00 | 0.00 | 95 | 1008.4 |
| 20260503050015 | 34 | 158 | 1.0 | 4.0 | 0.00 | 0.00 | 0.00 | 95 | 1008.4 |
| 20260503045015 | 34 | 158 | 1.0 | 4.0 | 0.00 | 0.00 | 0.00 | 96 | 1008.5 |
| 20260503044017 | 34 | 0.0 | 3.0 | 0.00 | 0.00 | 0.00 | 96 | 1008.5 | |
| 20260503043017 | 34 | 0.0 | 2.0 | 0.00 | 0.00 | 0.00 | 96 | 1008.5 | |
| 20260503042015 | 33 | 158 | 2.0 | 5.0 | 0.00 | 0.00 | 0.00 | 96 | 1008.5 |
| 20260503041017 | 33 | 0.0 | 1.0 | 0.00 | 0.00 | 0.00 | 96 | 1008.6 | |
| 20260503040017 | 33 | 0.0 | 1.0 | 0.00 | 0.00 | 0.00 | 96 | 1008.5 | |
| 20260503035017 | 33 | 0.0 | 0.0 | 0.00 | 0.00 | 0.00 | 96 | 1008.4 | |
| 20260503034017 | 33 | 0.0 | 0.0 | 0.00 | 0.00 | 0.00 | 96 | 1008.4 | |
| 20260503033017 | 33 | 0.0 | 0.0 | 0.00 | 0.00 | 0.00 | 96 | 1008.5 | |
| 20260503032037 | 33 | 0.0 | 0.0 | 0.00 | 0.00 | 0.00 | 96 | 1008.5 | |
| 20260503031017 | 33 | 0.0 | 1.0 | 0.00 | 0.00 | 0.00 | 95 | 1008.6 | |
| 20260503030017 | 33 | 0.0 | 1.0 | 0.00 | 0.00 | 0.00 | 95 | 1008.7 | |
| 20260503025017 | 33 | 45 | 1.0 | 4.0 | 0.00 | 0.00 | 0.00 | 95 | 1009.0 |
| 20260503024017 | 33 | 293 | 3.0 | 9.0 | 0.00 | 0.00 | 0.00 | 96 | 1009.1 |
| 20260503023017 | 33 | 225 | 2.0 | 6.0 | 0.00 | 0.00 | 0.00 | 95 | 1009.0 |
| 20260503021017 | 33 | 270 | 2.0 | 8.0 | 0.00 | 0.00 | 0.00 | 96 | 1008.9 |
| 20260503020017 | 33 | 0.0 | 1.0 | 0.00 | 0.00 | 0.00 | 95 | 1008.7 | |
| 20260503015017 | 32 | 0.0 | 0.0 | 0.00 | 0.00 | 0.00 | 95 | 1008.7 | |
| 20260503014017 | 32 | 0.0 | 0.0 | 0.00 | 0.00 | 0.00 | 95 | 1008.7 | |
| 20260503013017 | 33 | 0.0 | 0.0 | 0.00 | 0.00 | 0.00 | 95 | 1008.8 | |
| 20260503012017 | 33 | 0.0 | 1.0 | 0.00 | 0.00 | 0.00 | 95 | 1008.8 | |
| 20260503011017 | 33 | 0.0 | 0.0 | 0.00 | 0.00 | 0.00 | 94 | 1009.0 | |
| 20260503010017 | 33 | 45 | 1.0 | 3.0 | 0.00 | 0.00 | 0.00 | 94 | 1009.2 |
| 20260503005017 | 33 | 293 | 2.0 | 6.0 | 0.00 | 0.00 | 0.00 | 94 | 1009.2 |
| 20260503004057 | 34 | 293 | 2.0 | 8.0 | 0.00 | 0.00 | 0.00 | 94 | 1009.1 |
| 20260503003017 | 34 | 0.0 | 1.0 | 0.00 | 0.00 | 0.00 | 94 | 1008.9 | |
| 20260503002016 | 34 | 0.0 | 0.0 | 0.00 | 0.00 | 0.00 | 94 | 1009.0 | |
| 20260503001037 | 34 | 0.0 | 0.0 | 0.00 | 0.00 | 0.00 | 93 | 1009.1 | |
| 20260503000017 | 34 | 0.0 | 1.0 | 0.00 | 0.00 | 0.00 | 93 | 1009.1 | |
| 20260502235016 | 34 | 0.0 | 2.0 | 0.00 | 0.00 | 0.00 | 94 | 1009.2 | |
| 20260502234016 | 34 | 0.0 | 2.0 | 0.00 | 0.00 | 0.00 | 93 | 1009.3 | |
| 20260502233017 | 34 | 0.0 | 1.0 | 0.00 | 0.00 | 0.00 | 93 | 1009.3 | |
| 20260502232016 | 34 | 293 | 1.0 | 6.0 | 0.00 | 0.00 | 0.00 | 93 | 1009.3 |
| 20260502231017 | 35 | 0.0 | 0.0 | 0.00 | 0.00 | 0.00 | 92 | 1009.0 | |
| 20260502230016 | 35 | 0.0 | 0.0 | 0.00 | 0.00 | 0.00 | 92 | 1008.9 |